Santa Maria, CA

5:41 PM PDT on August 27, 2016 (GMT -0700)
Santa Maria Public Airport / Captain G. Allan Hancock Field

Weather History for KSMX - September, 2012

Change the Weather History Date:

Monday, September 10, 2012

  Actual Average Record
Temperature  
Mean Temperature 62 °F 64 °F  
Max Temperature 71 °F 74 °F 97 °F (1983)
Min Temperature 53 °F 53 °F 39 °F (1931)
Degree Days  
Heating Degree Days 3 2  
Month to date heating degree days 17 20  
Since 1 July heating degree days 121 156  
Cooling Degree Days 0 1  
Month to date cooling degree days 1 10  
Year to date cooling degree days 25 65  
Growing Degree Days 12 (Base 50)    
Moisture  
Dew Point 54 °F    
Average Humidity 81    
Maximum Humidity 100    
Minimum Humidity 61    
Precipitation  
Precipitation 0.00 in 0.01 in 0.85 in (1976)
Month to date precipitation 0.00 0.03  
Year to date precipitation 7.23 9.79  
Since 1 July precipitation 0.03  
Sea Level Pressure  
Sea Level Pressure 29.92 in    
Wind  
Wind Speed 6 mph (WNW)    
Max Wind Speed 15 mph    
Max Gust Speed 20 mph    
Visibility 6 miles    
Events      
T = Trace of Precipitation, MM = Missing Value Source: NWS Daily Summary

Daily Weather History Graph

Daily Weather History Graph

Search for Another Location

Airport or City:

Trip Planner

Search our weather history database for the weather conditions in past years. The results will help you decide how hot, cold, wet, or windy it might be!

Date:

Astronomy

Sep. 10, 2012 Rise Set
Actual Time 6:41 AM PDT 7:14 PM PDT
Civil Twilight 6:16 AM PDT 7:40 PM PDT
Nautical Twilight 5:46 AM PDT 8:10 PM PDT
Astronomical Twilight 5:15 AM PDT 8:40 PM PDT
Moon 1:17 AM PDT (9/10) 3:39 PM PDT (9/10)
Length of Visible Light 13h 24m
Length of Day
12h 33m
Waning Crescent, 29% of the Moon is Illuminated
Sep 10
Waning Crescent
Sep 15
New
Sep 22
First Quarter
Sep 29
Full
Oct 8
Last Quarter

Hourly Weather History & Observations

Time (PDT) Temp. Dew Point Humidity Pressure Visibility Wind Dir Wind Speed Gust Speed Precip Events Conditions
12:51 AM 57.9 °F 53.1 °F 84% 29.91 in 8.0 mi South 5.8 mph - N/A   Clear
1:51 AM 57.9 °F 54.0 °F 87% 29.92 in 8.0 mi South 10.4 mph - N/A   Clear
2:51 AM 57.0 °F 53.1 °F 87% 29.92 in 8.0 mi SSE 4.6 mph - N/A   Clear
3:51 AM 57.0 °F 54.0 °F 89% 29.91 in 7.0 mi SSW 5.8 mph - N/A   Clear
4:51 AM 55.9 °F 53.1 °F 90% 29.90 in 7.0 mi SSE 6.9 mph - N/A   Clear
5:51 AM 55.9 °F 53.1 °F 90% 29.90 in 7.0 mi SSW 3.5 mph - N/A   Clear
6:51 AM 54.0 °F 52.0 °F 93% 29.92 in 5.0 mi West 3.5 mph - N/A   Scattered Clouds
6:57 AM 55.4 °F 53.6 °F 94% 29.92 in 4.0 mi West 3.5 mph - N/A   Mostly Cloudy
7:08 AM 55.4 °F 53.6 °F 94% 29.92 in 4.0 mi WNW 3.5 mph - N/A   Mostly Cloudy
7:28 AM 55.4 °F 53.6 °F 94% 29.93 in 2.0 mi WNW 3.5 mph - N/A   Overcast
7:51 AM 55.9 °F 55.0 °F 97% 29.94 in 1.0 mi West 3.5 mph - N/A   Overcast
8:47 AM 57.2 °F 55.4 °F 94% 29.94 in 4.0 mi WNW 4.6 mph - N/A   Overcast
8:51 AM 57.9 °F 54.0 °F 87% 29.95 in 5.0 mi WNW 4.6 mph - N/A   Overcast
9:28 AM 60.8 °F 55.4 °F 82% 29.94 in 5.0 mi West 5.8 mph - N/A   Haze
9:51 AM 62.1 °F 55.0 °F 78% 29.94 in 5.0 mi WNW 4.6 mph - N/A   Haze
10:51 AM 66.9 °F 55.9 °F 68% 29.94 in 7.0 mi Variable 5.8 mph - N/A   Clear
11:51 AM 68.0 °F 55.9 °F 65% 29.94 in 8.0 mi WNW 6.9 mph - N/A   Clear
12:51 PM 70.0 °F 55.9 °F 61% 29.94 in 8.0 mi WNW 10.4 mph - N/A   Clear
1:51 PM 69.1 °F 55.9 °F 63% 29.92 in 8.0 mi NW 11.5 mph - N/A   Clear
2:51 PM 68.0 °F 55.0 °F 63% 29.91 in 9.0 mi WNW 10.4 mph - N/A   Clear
3:51 PM 68.0 °F 55.0 °F 63% 29.90 in 9.0 mi NW 9.2 mph - N/A   Clear
4:51 PM 68.0 °F 55.0 °F 63% 29.89 in 8.0 mi NW 8.1 mph - N/A   Clear
5:51 PM 63.0 °F 55.0 °F 75% 29.89 in 8.0 mi NW 9.2 mph - N/A   Clear
6:51 PM 59.0 °F 54.0 °F 83% 29.90 in 7.0 mi NW 9.2 mph - N/A   Partly Cloudy
7:26 PM 57.2 °F 53.6 °F 88% 29.89 in 7.0 mi NW 5.8 mph - N/A   Mostly Cloudy
7:51 PM 57.0 °F 54.0 °F 89% 29.90 in 7.0 mi WNW 5.8 mph - N/A   Overcast
8:51 PM 57.0 °F 54.0 °F 89% 29.91 in 7.0 mi NNW 4.6 mph - N/A   Overcast
9:51 PM 57.0 °F 54.0 °F 89% 29.91 in 6.0 mi Calm Calm - N/A   Overcast
10:51 PM 57.0 °F 54.0 °F 89% 29.91 in 6.0 mi NW 5.8 mph - N/A   Overcast
11:21 PM 57.2 °F 53.6 °F 88% 29.91 in 6.0 mi WNW 3.5 mph - N/A   Overcast
11:51 PM 57.0 °F 55.0 °F 93% 29.91 in 5.0 mi Calm Calm - N/A   Overcast